Regional Weather Roundup
Issued by NWS Albany, NY

Home | Current Version | Previous Version | Text Only | Print | Product List | Glossary On
Versions: 1 2 3 4 5 6 7 8 9 10 11 12 13 14 15 16 17 18 19 20 21 22 23 24 25 26 27 28 29 30 31 32 33 34 35 36 37 38 39 40 41 42 43 44 45 46 47 48 49 50
000
ASUS41 KALY 191910
RWRALY

NEW YORK STATE HOURLY WEATHER ROUNDUP
NATIONAL WEATHER SERVICE ALBANY NY
200 PM EST THU JAN 19 2017

NOTE: "FAIR" INDICATES FEW OR NO CLOUDS BELOW 12,000 FEET WITH NO
SIGNIFICANT WEATHER AND/OR NO OBSTRUCTIONS TO VISIBILITY.

NYZ032-033-038>043-046>054-057>066-NYZ062>081-082-084-192000-
EAST


CITY           SKY/WX    TMP DP  RH WIND       PRES   REMARKS
ALBANY         CLOUDY    41  33  73 W12       30.00F
GLENS FALLS    CLOUDY    41  36  82 CALM      29.97F
POUGHKEEPSIE   MOSUNNY   47  34  60 NW6       29.97F
NEWBURGH       PTSUNNY   45  37  76 NW13      29.98F
MONTGOMERY     PTSUNNY   47  34  60 W7        29.96F
WHITE PLAINS   PTSUNNY   45  34  65 NW10      29.97F
ISLIP          PTSUNNY   48  36  63 N7        29.97F
NEW YORK CITY  PTSUNNY   47  35  63 NW14      29.99S
CENTRAL PARK   CLOUDY    45  34  65 NW8       30.02S
$$

NYZ005>009-017-018-044>046-055-056-192000-
CENTRAL


CITY           SKY/WX    TMP DP  RH WIND       PRES   REMARKS
FULTON         CLOUDY    37  35  92 W7        30.02F FOG     WCI  32
SYRACUSE       CLOUDY    37  34  89 W10       30.02F WCI  30
ROME           LGT RAIN  36  36 100 W8        30.03S WCI  30
ELMIRA           N/A    N/A N/A N/A MISG      30.00F
BINGHAMTON     CLOUDY    34  32  92 NW6       29.97F FOG     WCI  29
MONTICELLO     CLOUDY    37  34  87 W8        29.98S WCI  31
$$

NYZ026>034-041>043-087-192000-
NORTH


CITY           SKY/WX    TMP DP  RH WIND       PRES   REMARKS
WATERTOWN      CLOUDY    38  36  92 SW9       30.01F WCI  31
FORT DRUM      NOT AVBL
OGDENSBURG     CLOUDY    39  37  92 CALM      30.00S
MASSENA        CLOUDY    37  33  85 W5        30.00F WCI  33
SARANAC LAKE   LGT SNOW  33  29  85 VRB6      29.92F FOG     WCI  28
PLATTSBURGH    CLOUDY    39  29  67 NW9       29.98S WCI  33
$$

NYZ001>004-010>016-019>021-085-192000-
WEST


CITY           SKY/WX    TMP DP  RH WIND       PRES   REMARKS
NIAGARA FALLS  CLOUDY    36  31  82 SW6       30.01F WCI  31
BUFFALO        DRIZZLE   34  32  92 W7        30.01F FOG     WCI  28
DUNKIRK        CLOUDY    35  34  96 W8        30.02F FOG     WCI  29
JAMESTOWN      CLOUDY    34  30  86 SW5       29.97F WCI  30
WELLSVILLE     CLOUDY    37  32  82 SW6       29.97F WCI  32
ROCHESTER      CLOUDY    38  32  79 W10       30.03S WCI  31
PENN YAN       CLOUDY    37  32  82 CALM      30.01F
$$

             KEY
       WCI = WIND CHILL INDEX
       VSB = VISIBILITY
       HX  = HEAT INDEX
$$



USA.gov is the U.S. government's official web portal to all federal, state and local government web resources and services.